Weather History for KCAK - March, 2013

Change the Weather History Date:

Sunday, March 31, 2013

  Actual Average Record
Temperature  
Mean Temperature 46 °F 43 °F  
Max Temperature 51 °F 53 °F 80 °F (1998)
Min Temperature 41 °F 33 °F 9 °F (1923)
Degree Days  
Heating Degree Days 19 22  
Month to date heating degree days 943 851  
Since 1 July heating degree days 5204 5395  
Cooling Degree Days 0 0  
Month to date cooling degree days 0 0  
Year to date cooling degree days 0 0  
Moisture  
Dew Point 34 °F    
Average Humidity 64    
Maximum Humidity 86    
Minimum Humidity 41    
Precipitation  
Precipitation T in 0.11 in 0.86 in (1985)
Month to date precipitation 2.06 2.98  
Year to date precipitation 6.25 7.90  
Snow  
Snow 0.00 in 0.20 in - ()
Month to date snowfall 10.5 8.2  
Since 1 July snowfall 46.9 44.7  
Snow Depth 0.00 in    
Sea Level Pressure  
Sea Level Pressure 29.80 in    
Wind  
Wind Speed 10 mph (SSW)    
Max Wind Speed 17 mph    
Max Gust Speed 22 mph    
Visibility 8 miles    
Events Rain    
T = Trace of Precipitation, MM = Missing Value Source: NWS Daily Summary

Daily Weather History Graph

Daily Weather History Graph

Search for Another Location

Airport or City:

Trip Planner

Search our weather history database for the weather conditions in past years. The results will help you decide how hot, cold, wet, or windy it might be!

Date:

Astronomy

Mar. 31, 2013 Rise Set
Actual Time 7:10 AM EDT 7:49 PM EDT
Civil Twilight 6:42 AM EDT 8:17 PM EDT
Nautical Twilight 6:10 AM EDT 8:50 PM EDT
Astronomical Twilight 5:36 AM EDT 9:24 PM EDT
Moon No Moon Rise 9:55 AM EDT (3/31)
Length of Visible Light 13h 34m
Length of Day
12h 39m
Waning Gibbous, 78% of the Moon is Illuminated
Mar 31
Waning Gibbous
Apr 3
Last Quarter
Apr 10
New
Apr 18
First Quarter
Apr 25
Full

Hourly Weather History & Observations

Time (EDT) Temp. Windchill Dew Point Humidity Pressure Visibility Wind Dir Wind Speed Gust Speed Precip Events Conditions
12:51 AM 44.1 °F 40.8 °F 23.0 °F 43% 29.98 in 9.0 mi SE 5.8 mph - N/A   Overcast
1:51 AM 44.1 °F 39.5 °F 23.0 °F 43% 29.96 in 10.0 mi SE 8.1 mph - N/A   Overcast
2:51 AM 43.0 °F 38.2 °F 23.0 °F 45% 29.92 in 10.0 mi SE 8.1 mph - N/A   Overcast
3:51 AM 42.1 °F 37.7 °F 21.9 °F 45% 29.89 in 10.0 mi SE 6.9 mph - N/A   Mostly Cloudy
4:51 AM 42.1 °F 37.7 °F 21.9 °F 45% 29.86 in 10.0 mi SE 6.9 mph - N/A   Mostly Cloudy
5:51 AM 42.1 °F 38.4 °F 23.0 °F 47% 29.85 in 10.0 mi SSE 5.8 mph - N/A   Mostly Cloudy
6:51 AM 42.1 °F 38.4 °F 24.1 °F 49% 29.83 in 10.0 mi SSE 5.8 mph - N/A   Mostly Cloudy
7:51 AM 42.1 °F 38.4 °F 25.0 °F 51% 29.82 in 9.0 mi SSE 5.8 mph - N/A   Mostly Cloudy
8:51 AM 46.0 °F 41.4 °F 26.1 °F 46% 29.81 in 9.0 mi South 9.2 mph - N/A   Overcast
9:51 AM 46.9 °F - 32.0 °F 56% 29.81 in 7.0 mi SSW 15.0 mph - N/A   Overcast
10:51 AM 46.9 °F - 36.0 °F 66% 29.80 in 7.0 mi SSW 10.4 mph - N/A   Overcast
11:51 AM 48.0 °F - 42.1 °F 80% 29.79 in 7.0 mi SSW 12.7 mph - 0.00 in   Overcast
12:51 PM 48.0 °F - 43.0 °F 83% 29.78 in 7.0 mi SW 10.4 mph - 0.00 in Rain Light Rain
1:51 PM 48.9 °F - 44.1 °F 83% 29.75 in 5.0 mi SSW 9.2 mph - 0.00 in Rain Light Rain
2:51 PM 48.9 °F - 44.1 °F 83% 29.74 in 8.0 mi SSW 11.5 mph - 0.00 in Rain Light Rain
3:43 PM 48.2 °F - 42.8 °F 82% 29.71 in 10.0 mi SSW 12.7 mph - 0.00 in   Overcast
3:51 PM 48.9 °F - 43.0 °F 80% 29.72 in 10.0 mi SW 13.8 mph - 0.00 in   Overcast
4:51 PM 50.0 °F - 42.1 °F 74% 29.71 in 10.0 mi WSW 17.3 mph 21.9 mph N/A   Overcast
5:51 PM 50.0 °F - 44.1 °F 80% 29.71 in 7.0 mi SW 10.4 mph - 0.00 in   Mostly Cloudy
6:51 PM 50.0 °F - 43.0 °F 77% 29.72 in 5.0 mi WSW 10.4 mph - N/A   Haze
7:51 PM 48.9 °F - 37.9 °F 66% 29.73 in 8.0 mi WSW 6.9 mph - N/A   Mostly Cloudy
8:51 PM 43.0 °F 38.2 °F 36.0 °F 76% 29.74 in 8.0 mi SSW 8.1 mph - N/A   Mostly Cloudy
9:51 PM 46.0 °F 41.4 °F 37.9 °F 73% 29.73 in 8.0 mi SSW 9.2 mph - N/A   Mostly Cloudy
10:51 PM 46.0 °F 40.6 °F 39.0 °F 76% 29.72 in 8.0 mi SSW 11.5 mph - N/A   Overcast
11:51 PM 48.0 °F - 39.0 °F 71% 29.70 in 8.0 mi SW 13.8 mph - N/A   Overcast